Zurück zum Katalog

STARLINK-11133

AktivKommunikationVLEO
NORAD 59954·PAYLOAD·🇺🇸 United States

Gestartet Jun 5, 2024 von Cape Canaveral Space Force Station

Loading…

Nächste Überflüge (nächste 24 Stunden)

TLE

AktuellSource: CelesTrak SupGP

Epoche: Sep 14, 2026, 20:46 UTC

1 59954C 24107K   26257.86576389 -.00055756  00000+0 -45957-3 0  2579
2 59954  53.1574  38.5526 0001147  87.4804 147.3208 15.69721981    17

Verfolge STARLINK-11133 in Echtzeit mit AllMySat

Download on the App Store